Regional Weather Roundup
Issued by NWS

Home | Current Version | Previous Version | Text Only | Print | Product List | Glossary On
Versions: 1 2 3 4 5 6 7 8 9 10 11 12 13 14 15 16 17 18 19 20 21 22 23 24 25 26 27 28 29 30 31 32 33 34 35 36 37 38 39 40 41 42 43 44 45 46 47 48 49 50
000
ASUS43 KMKX 290721
RWRWI

WISCONSIN REGIONAL WEATHER ROUNDUP
NATIONAL WEATHER SERVICE MILWAUKEE/SULLIVAN WI
200 AM CDT TUE JUL 29 2014

NOTE: "FAIR" INDICATES FEW OR NO CLOUDS BELOW 12,000 FEET WITH NO
SIGNIFICANT WEATHER AND/OR OBSTRUCTIONS TO VISIBILITY.

WIZ001-002-006>008-014>016-023>028-290800-
NORTHWEST WISCONSIN

CITY           SKY/WX    TMP DP  RH WIND       PRES   REMARKS
SUPERIOR ARPT  MOCLDY    55  53  94 W3        30.08F
ASHLAND        MOCLDY    55  54  96 CALM      30.08S FOG
HAYWARD        CLEAR     53  52  96 S3        30.10F
SIREN          CLEAR     56  53  91 CALM      30.11S
RICE LAKE      NOT AVBL
LADYSMITH      CLEAR     56  54  91 W5        30.09F
EAU CLAIRE     PTCLDY    59  54  83 W7        30.08F
MENOMONIE      SUNNY     60  55  84 W6        30.10F
NEW RICHMOND   CLEAR     57  55  92 CALM      30.12F
OSCEOLA        PTCLDY    55  55  99 CALM      30.15F
$$

WIZ003>005-009-010-017-018-290800-
NORTH CENTRAL WISCONSIN

CITY           SKY/WX    TMP DP  RH WIND       PRES   REMARKS
WOODRUFF       PTCLDY    57  54  89 W5        30.05F
RHINELANDER    FAIR      55  54  96 W6        30.06F
EAGLE RIVER    PTCLDY    53  53 100 W3        30.04F
LAND O LAKES   PTCLDY    55  53  94 W3        30.05S
PHILLIPS       CLEAR     55  55  97 CALM      30.06F
TOMAHAWK       PTCLDY    52  51  95 W6        30.06F
MEDFORD        CLEAR     53  53  99 W3        30.07F
MERRILL        PTCLDY    55  54  97 NW5       30.06F
$$

WIZ029-030-035-036-043>047-290800-
CENTRAL WISCONSIN

CITY           SKY/WX    TMP DP  RH WIND       PRES   REMARKS
WAUSAU         PTCLDY    59  54  83 NW9       30.03F
MOSINEE        PTCLDY    55  54  94 NW5       30.05F
MARSHFIELD     MOCLDY    59  53  80 NW7       30.06F
STEVENS POINT  PTCLDY    58  55  88 CALM      30.05F
WAUPACA        PTCLDY    64  54  69 NW7       30.03S
WAUTOMA        MOCLDY    63  55  75 W6        30.05F
WISC RAPIDS    MOCLDY    59  54  83 W5        30.07F
CAMP DOUGLAS   CLEAR     55  55  98 W9        30.07F
$$

WIZ011>013-019>022-031-037>040-048>050-290800-
NORTHEAST WISCONSIN

CITY           SKY/WX    TMP DP  RH WIND       PRES   REMARKS
ANTIGO         CLEAR     55  54  95 NW8       30.04F
STURGEON BAY   CLEAR     63  54  72 NW7       29.99F
GREEN BAY      MOCLDY    60  55  83 W7        30.01S
MANITOWOC      MOCLDY    62  55  77 NW7       30.00F
APPLETON       PTCLDY    55  52  88 W8        30.02F
CLINTONVILLE   CLEAR     59  54  82 NW5       30.01F
OSHKOSH        PTCLDY    62  55  77 W5        30.02F
$$

WIZ032>034-041-042-053>061-290800-
SOUTHWEST WISCONSIN

CITY           SKY/WX    TMP DP  RH WIND       PRES   REMARKS
LA CROSSE      CLEAR     59  55  87 CALM      30.09F
SPARTA         PTCLDY    51  49  95 CALM      30.10F
VIROQUA        FAIR      55  55  97 W7        30.10F
BOSCOBEL       CLEAR     55  52  89 CALM      30.11S
PRAIRIE DU CHI CLEAR     55  52  89 CALM      30.11F
PLATTEVILLE    FAIR      55  52  91 W3        30.11F
$$

WIZ056-057-062-063-064-067-068-290800-
SOUTH CENTRAL WISCONSIN

CITY           SKY/WX    TMP DP  RH WIND       PRES   REMARKS
BARABOO/DELLS  PTCLDY    60  51  72 CALM      30.07F
LONE ROCK      MOCLDY    60  55  83 W6        30.09F
WATERTOWN      PTCLDY    57  54  88 CALM      30.05S
MADISON        CLOUDY    62  52  69 W5        30.06F
MIDDLETON      CLOUDY    60  53  76 W5        30.08S
MONROE         CLEAR     59  52  77 NW10      30.08F
JANESVILLE     CLEAR     57  50  77 NW6       30.06S
$$

WIZ051-052-058>065-066-070>072-290800-
SOUTHEAST WISCONSIN

CITY           SKY/WX    TMP DP  RH WIND       PRES   REMARKS
MILWAUKEE      PTCLDY    60  52  74 W3        30.04F
WAUKESHA       CLEAR     55  52  88 W7        30.05F
MILWAUKEE/TIMM PTCLDY    57  52  82 CALM      30.04F
RACINE         PTCLDY    57  51  80 CALM      30.05F
BURLINGTON     CLEAR     56  52  86 NW6       30.05S
KENOSHA        CLEAR     54  52  93 CALM      30.05S
FOND DU LAC    CLOUDY    63  54  72 SW5       30.03F
SHEBOYGAN      CLOUDY    57  55  93 W6        30.01F
WEST BEND      CLOUDY    59  52  77 CALM      30.03F
JUNEAU         PTCLDY    56  52  84 SW5       30.06S
$$

LSZ147-162-290800-
LAKE SUPERIOR

STATION/POSITION TIME  TEMP    WIND        PRES    WAVE
                       AIR SEA DIR/SP/G            HT/PER
                 (UTC) (F)     (DEG/KT/KT) (MB)    (FT/S)
W MID LAKE BUOY  0650   49 43  250/ 10/ 10 1016.6F   1
PORT WING        0640   60      CALM  /  2 1018.6F
SAXON HARBOR     0600          180/  3/  5 1017.9F
$$

LMZ867-665-643>646-290800-
LAKE MICHIGAN

STATION/POSITION TIME  TEMP    WIND        PRES    WAVE
                       AIR SEA DIR/SP/G            HT/PER
                 (UTC) (F)     (DEG/KT/KT) (MB)    (FT/S)
N MID LAKE BUOY  0650   58 54  300/  6/  8 1014.0F   1
NORTHPORT PIER   0600   64     290/  7/ 11 1014.9S
SISTER BAY       0610   65     340/ 12/ 13   N/A
ALGOMA LAKESHORE 0506             CALM       N/A
KEWAUNEE LAKESHO 0700   61     300/  4/  5 1016.0F
SHEBOYGAN LAKESH 0700   63     270/  9/ 11 1016.1F
PORT WASHINGTON  0600   59     230/  3/  4 1017.6F
ATWATER BUOY     0700   61     180/  2     1017.8F
MILWAUKEE LAKESH 0700   63     270/  6/  8   N/A
S MID LAKE BUOY  0650   60 60  240/  8/  8 1016.9F   2/ 6
KENOSHA   LAKESH 0700   60     210/  4/  5 1016.9F
$$

TC  - TEMPERATURE IN CELSIUS
VSB - VISIBILITY IN STATUTE MILES
WCI - WIND CHILL INDEX
HX  - HEAT INDEX




USA.gov is the U.S. government's official web portal to all federal, state and local government web resources and services.